Flag for U.S.A. Weather past 2 weeks in Key West, Florida, U.S.A.

Now
84 °F

Passing clouds.


Feels Like: 93 °F
Forecast: 78 / 86 °F
Wind: 8 mph from Southwest

Location: Key West International Airport

Current Time: Apr 21, 2015 at 5:50:23 PM

Latest Report: Apr 21, 2015 at 4:53 PM


Visibility: 10 mi

Pressure: 29.93 "Hg

Humidity: 77%

Dew point: 76 °F

Location of Key WestLocation

Historic Weather in Key West — Graph

°F

Key West temperature yesterday

Maximum temperature yesterday: 84 °F (at 11:53 AM)
Minimum temperature yesterday: 80 °F (at 1:53 AM)
Average temperature yesterday: 82 °F

Past Weeks' High & Low Weather Summary

 TemperatureHumidityPressure
High85 °F (Apr 14, 2:53 PM)94% (Apr 7, 7:53 AM)30.15 "Hg (Apr 7, 7:53 AM)
Low74 °F (Apr 7, 7:53 AM)61% (Apr 7, 12:53 PM)29.88 "Hg (Apr 20, 5:53 PM)
Average80 °F77%30.04 "Hg
* Reported Apr 6 3:53 PM — Apr 21 3:53 PM, Key West, Weather by CustomWeather, © 2015

Note: Actual official high and low records may vary slightly from our data, if they occured in-between our weather recording intervals... More about our weather records

Advertising

Key West weather history for previous 24 hours

 ConditionsComfort  
Time TempWeatherWind HumidityBarometerVisibility
3:53 PM
Tue, Apr 21
84 °FSunny.9 mph77%29.94 "Hg10 mi
2:53 PM84 °FSunny.9 mph77%29.96 "Hg10 mi
1:53 PM85 °FSunny.10 mph75%29.98 "Hg10 mi
12:53 PM84 °FPassing clouds.12 mph77%29.99 "Hg10 mi
11:53 AM83 °FScattered clouds.12 mph79%30.01 "Hg10 mi
10:53 AM83 °FScattered clouds.10 mph79%30.01 "Hg10 mi
9:53 AM83 °FSunny.8 mph82%29.99 "Hg10 mi
8:53 AM82 °FSunny.9 mph82%29.98 "Hg10 mi
7:53 AM81 °FClear.7 mph85%29.97 "Hg10 mi
6:53 AM80 °FPassing clouds.6 mph87%29.95 "Hg10 mi
5:53 AM81 °FClear.5 mph88%29.94 "Hg10 mi
4:53 AM81 °FPassing clouds.6 mph88%29.93 "Hg10 mi
3:53 AM81 °FPartly cloudy.6 mph88%29.93 "Hg10 mi
2:53 AM82 °FClear.9 mph74%29.91 "Hg10 mi
1:53 AM82 °FPassing clouds.7 mph74%29.95 "Hg10 mi
12:53 AM82 °FPassing clouds.6 mph77%29.96 "Hg10 mi
11:53 PM
Mon, Apr 20
81 °FClear.5 mph82%29.97 "Hg10 mi
10:53 PM81 °FClear.3 mph82%29.96 "Hg10 mi
9:53 PM82 °FClear.5 mph82%29.95 "Hg10 mi
8:53 PM83 °FClear.No wind77%29.93 "Hg10 mi
7:53 PM84 °FSunny.3 mph70%29.90 "Hg10 mi
6:53 PM84 °FSunny.6 mph72%29.89 "Hg10 mi
5:53 PM84 °FSunny.7 mph70%29.88 "Hg10 mi
Weather by CustomWeather, © 2015

See weather overviewHow to use our weather pages